Location: ????????
(60.4333°N, 46.4710°E)
Time: 03:44:33
(UTC+00:00)

Cosmos 1624 Rocket - Pass Details

Date: 25 November 2020
Orbit: 758 x 783 km, 74.0° (Epoch: 19 January)

Event Time Altitude Azimuth Distance (km) Brightness Sun altitude
Rises 15:08:23 0° 323° (NW) 3,285 7.7 -21.4°
Reaches altitude 10° 15:10:54 10° 330° (NNW) 2,352 6.8 -21.7°
Maximum altitude 15:16:01 44° 43° (NE) 1,075 4.4 -22.3°
Enters shadow 15:16:04 44° 45° (NE) 1,075 4.4 -22.3°
